{"data":{"norad_id":58468,"intl_designator":"2023-185G","name":"SPIRIT","alt_names":[],"object_type":"PAYLOAD","status":"ACTIVE","operator":null,"country":"AUS","launch_date":"2023-12-01","launch_site_code":"AFWTR","launch_vehicle":null,"mission":null,"orbit_class":"UNKNOWN","rcs_meters":null,"size_class":null,"mass_kg":null,"dimensions":null,"purposes":[],"wikipedia_slug":null,"has_3d_model":false,"image_url":null,"decayed_at":null,"tle_current":{"epoch":"2026-08-01T14:32:05.460864Z","epoch_age_seconds":4555908,"freshness":"OLD","line1":"1 58468U 23185G   26213.60561876  .06744580  24838-5  47046-3 0  9991","line2":"2 58468  97.3119 302.7880 0014157 311.8558  48.1532 16.39916138149835","mean_motion":16.39916138,"eccentricity":0.0014157,"inclination_deg":97.3119,"raan_deg":302.788,"arg_perigee_deg":311.8558,"mean_anomaly_deg":48.1532,"bstar":0.00047046,"rev_number":14983,"period_min":87.809368212949,"perigee_km":156.76102923586,"apogee_km":175.29017122215,"semimajor_km":6544.162600229,"source":"CELESTRAK","updated_at":"2026-08-03T09:00:31.605593Z"}}}